Theta_e
291 289 287 287 290 292 291 291 293 289 287 287 285 284 284 285 286 287 287 288 288 289 287 289 289 289 291 292 293 289 289 289 290 291 291 291 291 292 292 293 293 293 293 292 292 293 295 297 299 300 302 303 301 301 303 303 303 302 302 301 300 301 300 299 299 299 297 296 297 295 293 293 293 292 292 292 293 293 293 293 294 294 294 294 294 294
292 288 287 291 293 292 292 291 289 287 289 290 287 285 286 284 286 289 290 289 288 289 284 285 286 288 289 291 292 289 288 290 291 291 291 292 292 292 293 292 293 293 290 290 291 292 292 296 299 300 302 302 300 300 302 302 302 302 302 301 300 301 301 300 300 299 297 296 295 293 291 291 291 291 291 290 291 291 292 292 292 292 292 292 292 293
288 288 292 294 291 290 290 289 289 290 288 287 287 285 285 286 285 289 289 289 289 288 287 287 287 289 290 291 291 290 290 292 293 293 294 293 293 292 292 293 292 291 291 291 292 292 294 296 299 300 301 301 300 301 302 302 302 302 302 301 301 301 301 300 299 298 295 294 294 292 291 291 289 290 290 290 290 290 290 290 290 290 290 291 290 291
286 287 293 292 290 291 290 287 288 288 288 286 285 285 286 284 286 285 285 287 290 289 285 284 285 288 290 290 291 293 292 292 292 292 293 294 294 293 293 293 293 292 291 290 291 292 294 297 299 300 301 300 300 300 299 300 301 301 300 301 300 299 299 297 296 295 293 292 292 291 291 290 289 288 289 289 289 289 289 288 288 289 289 289 289 289
289 290 292 292 292 292 290 286 287 286 286 284 287 285 284 286 286 288 286 287 286 288 286 287 287 289 290 291 292 293 291 291 292 291 291 292 293 294 292 292 293 293 292 291 291 292 294 296 299 299 300 300 299 299 298 298 299 299 298 298 298 297 297 296 294 293 293 291 290 290 289 289 288 289 288 287 287 287 288 287 287 287 287 288 287 287
289 290 291 291 289 290 289 286 287 289 285 285 286 289 289 288 288 286 285 288 283 283 284 286 282 280 283 288 290 291 287 289 290 290 292 293 292 291 291 292 292 293 293 292 292 292 294 297 299 299 299 299 299 298 297 298 298 297 297 297 296 296 295 294 293 294 293 291 289 289 288 287 287 286 286 286 285 285 285 284 285 285 285 285 285 285
289 291 292 290 289 288 289 288 286 290 288 285 286 288 290 289 287 286 286 287 280 280 285 285 283 282 283 287 288 287 287 290 291 289 292 293 292 290 292 292 291 292 291 292 292 292 294 297 298 298 299 299 298 298 297 296 297 297 296 296 296 295 294 293 292 293 293 291 291 291 290 289 288 286 285 284 284 284 283 284 283 283 283 283 284 284
289 289 290 288 288 288 286 286 288 291 288 284 285 284 288 287 286 286 285 286 282 281 284 284 280 282 285 288 290 292 290 290 290 293 293 292 291 290 291 291 291 292 292 292 292 292 294 298 298 298 299 299 298 297 295 295 296 295 296 296 296 294 294 292 292 291 291 290 291 290 289 288 287 286 284 283 283 283 283 283 282 282 282 282 283 283
290 288 288 288 287 285 287 289 289 292 288 285 287 286 286 288 286 286 286 282 283 282 281 283 285 283 282 284 286 288 287 289 292 294 296 295 291 290 290 290 291 292 292 292 292 292 293 297 298 299 299 299 297 295 293 293 295 295 295 295 294 293 292 292 291 291 290 290 290 289 287 285 285 284 284 284 284 283 283 282 281 282 282 282 282 282
289 290 291 292 290 289 287 286 290 293 289 287 286 287 286 284 282 281 281 285 281 279 280 282 284 280 285 283 286 285 287 289 292 295 296 293 291 290 290 290 290 291 291 292 292 292 293 296 299 299 299 298 296 295 293 293 294 294 294 293 292 291 292 291 291 290 289 289 289 288 287 285 284 284 283 283 282 281 281 281 281 281 281 281 281 281
290 292 291 291 289 289 287 286 286 291 289 289 287 288 286 283 280 279 280 279 280 277 283 283 285 285 283 283 286 288 288 290 293 292 292 287 286 288 289 290 290 290 291 291 291 292 293 295 298 299 298 296 295 295 294 293 293 294 293 292 291 291 292 291 290 289 288 287 287 287 286 285 283 283 282 281 281 281 281 281 280 280 280 280 281 281
290 289 290 289 289 288 289 288 286 287 287 290 286 282 285 284 279 278 275 276 275 277 282 284 285 286 281 281 283 288 287 286 290 291 292 289 288 288 288 289 290 290 290 291 291 290 290 292 296 297 296 294 294 294 293 293 293 293 292 292 291 290 291 290 289 288 287 287 286 285 285 284 284 283 282 282 281 281 281 280 280 280 280 280 280 280
287 287 286 289 290 292 287 288 287 287 290 287 286 288 282 274 273 275 271 276 274 279 281 279 283 282 284 289 285 287 291 291 289 291 292 291 289 288 288 288 289 290 289 290 290 290 290 292 294 295 295 293 293 293 293 292 292 292 291 291 290 289 289 288 287 286 286 285 284 284 284 284 284 283 282 282 281 281 281 281 280 280 280 280 280 279
284 283 286 289 290 291 292 289 283 284 287 286 288 284 281 273 273 269 267 266 271 276 279 281 283 283 282 287 291 294 296 295 291 290 290 290 291 290 288 288 289 289 289 290 290 290 290 292 293 295 294 293 293 293 293 292 291 291 290 290 290 288 287 286 285 285 284 284 284 284 284 284 284 283 282 282 282 281 281 281 281 281 281 280 280 280
277 281 286 289 288 290 293 294 293 288 288 289 287 290 286 280 272 270 271 275 277 276 276 279 279 277 279 285 285 292 288 283 283 285 286 286 287 287 286 287 288 288 288 289 289 290 290 291 293 294 294 293 292 292 292 291 291 291 290 290 289 287 286 285 285 284 283 283 283 283 283 283 283 282 282 282 282 281 281 281 281 280 280 280 280 280
284 284 283 291 288 292 292 290 289 286 287 285 284 285 281 284 280 281 274 272 271 272 272 275 281 280 285 285 287 285 285 287 286 285 285 286 285 285 286 287 288 288 289 289 289 289 289 291 291 293 293 293 292 291 291 291 290 290 289 289 288 287 285 284 284 283 283 283 282 282 282 282 282 282 282 282 282 281 281 280 280 280 279 280 279 279
281 280 284 288 288 291 292 289 290 290 286 285 286 285 286 284 286 277 274 274 274 272 279 275 280 283 284 290 291 293 288 289 287 287 285 286 284 284 286 287 287 288 288 288 289 289 289 289 290 292 293 293 292 291 290 290 290 290 289 288 287 286 284 283 284 283 283 282 282 282 282 281 281 281 281 281 281 280 280 280 279 279 279 279 279 279
284 281 286 286 288 287 286 287 287 287 287 286 281 285 286 286 285 283 278 271 269 274 277 278 281 282 280 283 282 285 287 290 290 291 288 283 282 284 286 287 287 288 288 288 288 288 289 289 290 290 292 293 292 291 290 290 290 290 289 287 286 285 283 283 283 283 283 282 282 282 281 281 282 281 281 281 280 280 280 279 279 279 279 279 279 279
289 283 284 283 285 287 286 290 289 288 288 287 284 288 289 281 279 280 276 275 269 272 275 276 278 282 284 285 284 286 286 289 291 292 288 288 285 285 285 286 286 286 287 287 287 288 288 288 289 289 290 290 291 292 291 291 290 289 289 287 286 285 284 284 284 283 283 283 283 283 282 281 281 281 281 280 280 280 280 279 279 279 279 279 279 279
289 285 282 285 285 286 286 288 284 285 288 287 289 288 285 283 278 278 282 275 277 272 268 279 276 283 284 285 286 289 288 289 290 287 289 290 290 287 286 286 287 287 287 287 287 288 288 288 288 289 289 289 289 290 290 290 289 288 288 287 286 285 284 283 283 283 283 283 283 282 282 281 281 281 280 280 280 280 280 279 279 279 278 279 279 278
287 287 280 283 283 286 284 285 285 287 286 285 285 283 286 281 284 281 280 278 277 270 270 274 279 282 284 287 288 291 290 291 291 291 291 291 289 287 287 287 287 287 288 288 288 287 287 287 288 288 288 289 288 289 289 288 288 288 288 287 285 284 283 283 283 283 283 283 282 282 281 281 281 280 280 280 280 280 279 279 279 279 279 278 278 278
285 284 284 281 282 283 283 284 288 290 292 290 289 286 288 284 281 278 280 280 275 277 277 269 280 286 284 285 290 290 290 291 289 288 291 290 287 286 287 287 287 288 288 288 288 287 287 287 287 287 287 287 287 287 287 287 288 288 287 287 285 284 284 283 283 283 283 282 282 282 281 281 280 280 280 280 279 279 279 279 279 278 278 278 277 277
293 284 284 280 282 285 285 287 284 285 285 286 287 284 289 289 287 282 279 278 276 281 277 276 270 285 286 285 284 285 285 286 285 285 287 289 287 286 287 287 287 287 287 288 287 287 287 286 286 286 287 287 287 287 286 286 288 288 288 287 285 284 283 284 283 283 283 282 282 281 281 280 280 280 279 279 279 278 278 278 278 278 278 277 277 277
294 289 287 285 284 282 283 284 285 284 287 287 285 282 286 288 288 288 286 283 284 277 278 274 275 282 286 283 281 281 281 282 283 283 286 288 287 286 286 286 286 286 286 286 287 286 286 285 285 285 285 286 286 286 286 286 287 287 288 287 286 284 283 283 283 283 282 282 281 281 280 280 280 279 279 279 278 278 278 278 278 278 277 277 277 277
289 287 289 284 279 280 280 284 285 286 287 283 283 286 290 291 288 281 282 279 278 281 283 281 279 285 286 280 282 282 282 284 286 285 285 287 286 286 286 286 286 286 286 286 286 286 285 284 284 285 286 286 286 286 286 285 286 286 287 286 286 284 283 283 282 282 282 282 281 280 280 279 279 279 278 278 278 278 277 277 277 277 277 277 277 277
292 289 288 283 281 278 278 279 281 282 284 285 282 287 286 289 286 285 284 281 281 285 284 284 284 286 285 283 286 285 282 285 285 284 283 285 287 286 286 286 286 286 286 286 285 285 285 285 285 285 285 286 286 286 285 285 285 285 285 286 286 285 283 282 282 282 282 281 281 280 280 279 279 279 278 278 278 278 277 277 277 277 277 277 277 276
287 289 291 290 287 285 287 285 287 288 284 284 284 287 287 288 289 290 288 285 283 283 283 287 288 287 287 287 285 286 282 286 288 287 288 288 286 285 285 286 286 286 286 286 285 285 284 284 285 285 285 286 286 286 286 285 285 285 285 285 285 285 283 282 282 282 281 281 281 280 280 280 279 279 279 278 278 278 277 277 277 277 277 277 277 277
286 288 290 290 290 290 289 281 288 290 287 288 286 285 288 287 288 287 286 285 287 283 282 289 288 287 290 291 290 289 288 286 287 287 288 288 287 286 285 284 287 285 285 285 285 284 285 285 285 285 285 285 285 285 285 285 285 284 284 284 283 283 282 282 282 281 281 281 281 281 280 280 279 279 279 278 278 278 277 277 278 278 278 278 277 277
288 288 291 289 289 291 283 284 287 289 289 288 288 287 286 288 287 286 287 289 288 287 285 288 288 288 291 293 294 292 293 295 296 294 292 290 287 284 284 285 285 285 285 285 285 285 285 285 284 284 284 284 284 284 285 284 284 284 283 283 283 282 282 282 281 281 281 281 281 281 280 280 279 279 278 278 277 277 277 277 278 278 278 277 277 278
289 287 288 289 289 290 286 285 286 287 286 285 287 288 288 288 287 288 288 290 290 289 291 292 288 289 293 292 292 293 294 295 292 287 286 287 288 286 285 285 285 285 285 285 285 285 285 284 284 284 284 284 284 284 284 284 284 283 283 282 282 282 281 281 281 281 280 280 281 280 279 279 279 278 278 277 277 277 278 278 278 278 278 278 277 277
290 287 290 288 287 288 287 284 285 286 285 285 286 287 288 288 288 289 289 289 290 290 291 291 289 290 292 292 294 294 288 287 287 287 289 289 286 285 285 285 286 286 286 286 285 285 285 284 284 284 284 284 284 284 284 284 284 283 282 282 282 282 281 281 281 281 280 280 280 279 278 278 278 278 278 278 278 279 279 278 278 278 277 277 277 276
290 287 287 287 286 287 285 286 284 284 284 284 285 286 286 286 285 287 286 290 288 287 289 289 288 289 290 294 293 290 288 290 290 290 288 288 287 285 286 287 286 286 287 287 287 286 284 284 285 285 285 285 285 285 285 284 284 283 283 283 282 282 282 281 281 280 280 280 279 279 279 279 279 278 278 278 278 279 279 278 278 277 277 276 276 275
289 288 287 288 285 286 286 287 285 285 285 283 285 288 287 287 289 289 290 291 291 292 288 286 288 293 295 289 290 290 290 290 290 290 289 287 287 287 288 288 288 288 288 288 287 287 286 285 285 286 286 285 285 285 285 285 284 284 284 283 282 282 281 281 281 281 280 280 280 279 279 279 279 278 278 278 279 279 278 277 277 277 276 276 276 275
287 288 288 288 285 286 286 286 286 284 279 282 292 294 291 289 288 287 287 289 291 292 291 294 294 296 294 287 290 291 289 291 292 292 292 293 289 286 287 288 288 289 289 288 288 287 287 286 286 286 286 286 286 286 286 286 285 284 283 283 281 281 281 281 281 281 281 280 280 280 279 279 278 278 278 278 278 277 277 277 277 277 276 276 276 275
287 288 287 287 285 284 284 286 282 278 281 290 286 289 295 294 293 291 291 292 292 292 293 292 293 294 294 292 291 292 293 293 291 290 289 287 288 289 288 288 287 288 288 287 286 286 287 287 287 286 286 286 286 285 285 285 285 284 283 282 282 282 282 282 281 281 281 280 280 280 279 279 278 278 277 277 277 276 277 277 276 276 276 276 275 275
287 288 286 285 285 284 282 284 277 279 287 287 287 285 285 289 291 291 289 292 293 293 293 291 293 295 295 295 291 289 289 288 286 285 285 285 288 290 288 288 288 287 287 287 288 288 288 288 287 287 286 285 285 285 285 285 285 284 284 283 283 282 282 282 281 281 281 280 280 279 279 278 278 277 276 276 276 276 277 276 276 276 276 275 275 275
291 288 287 284 287 281 281 283 283 287 287 289 287 283 289 288 286 288 284 288 292 293 293 292 293 294 294 294 294 287 284 287 287 288 285 285 287 288 290 289 288 287 288 288 289 289 289 289 288 287 286 285 285 285 285 285 285 285 284 283 283 282 282 282 281 281 281 280 280 279 278 278 277 276 276 276 276 276 276 277 276 276 276 275 275 275
294 288 288 285 284 286 282 280 280 280 279 285 287 283 291 291 292 292 289 288 292 292 293 293 292 293 293 293 291 284 285 288 287 287 287 287 285 286 286 287 287 288 288 288 289 288 288 288 287 286 286 285 285 285 285 285 285 284 284 283 283 282 281 281 281 282 281 280 280 279 278 278 278 277 277 277 276 276 277 277 277 276 276 275 275 275
289 291 289 287 285 284 283 281 280 279 283 289 285 286 288 287 291 289 283 283 288 289 291 292 292 292 292 292 285 285 286 286 288 289 290 286 285 285 287 285 286 288 288 289 289 289 287 287 287 286 286 285 284 285 285 285 285 284 283 283 283 282 281 281 282 282 281 281 280 278 278 278 278 278 277 277 277 277 277 277 277 276 275 275 275 275
286 286 286 284 284 285 283 282 280 284 285 285 283 281 284 287 292 290 276 281 284 289 290 291 291 292 292 290 286 287 288 286 290 289 285 287 287 287 288 288 287 288 287 287 287 287 287 286 285 285 285 284 284 284 284 284 284 284 283 283 283 282 282 282 282 282 281 281 280 279 279 279 278 278 278 277 277 276 276 276 274 274 273 273 272 272
283 283 285 282 284 285 285 283 284 285 287 282 282 281 284 290 290 283 278 287 286 283 283 288 290 291 288 286 287 287 290 290 287 286 284 285 285 284 283 285 286 286 286 286 285 286 285 286 286 285 285 285 284 283 284 284 284 283 283 282 282 282 283 283 282 282 281 281 279 279 278 278 278 278 278 277 277 276 275 274 274 273 272 272 271 270
283 285 284 285 284 283 284 283 284 286 287 282 281 287 288 289 278 281 285 281 284 282 280 285 288 285 286 288 288 289 285 280 280 281 284 285 286 283 283 283 283 283 283 284 285 285 285 285 284 284 283 283 283 283 283 283 283 283 282 281 281 283 282 282 282 281 280 280 279 278 278 277 277 277 277 276 275 274 273 272 273 273 272 270 270 270
284 283 280 282 285 285 284 283 281 278 287 285 286 285 286 286 285 285 281 281 281 281 283 283 286 285 287 286 285 281 278 279 280 281 280 281 282 282 282 283 284 284 283 283 283 283 285 284 283 283 282 281 282 282 282 283 282 281 280 280 281 281 280 280 280 280 279 279 278 277 277 276 276 276 276 275 275 274 274 272 271 271 270 270 269 269
289 283 282 284 287 281 282 280 282 287 284 288 290 286 288 289 285 284 285 283 281 282 284 285 284 285 286 287 281 278 278 279 278 278 279 280 281 281 281 281 281 281 281 280 282 282 282 281 280 278 277 279 280 280 281 282 280 279 279 280 278 278 278 278 278 278 278 278 277 276 276 276 275 276 275 275 274 274 273 271 271 270 270 270 269 268
288 286 287 285 288 286 284 287 287 285 287 288 286 285 288 290 284 285 285 287 285 282 281 286 286 283 284 285 281 280 279 279 279 279 280 279 279 280 280 280 280 280 280 280 279 278 279 280 277 276 275 275 276 278 279 280 280 278 279 278 277 277 277 277 277 278 278 277 277 276 276 275 275 275 274 274 274 273 273 271 270 270 268 268 269 268
283 285 283 286 286 286 286 286 285 283 283 286 282 281 283 285 282 283 284 285 284 283 283 286 284 284 282 282 281 278 280 278 278 278 277 277 278 277 277 278 279 278 278 277 276 276 277 276 276 276 275 273 273 276 277 278 279 279 277 274 276 276 276 276 276 276 277 276 276 276 275 274 273 273 273 273 273 274 273 272 270 270 269 268 268 268
284 282 285 284 285 286 283 286 283 285 284 283 283 281 280 281 282 282 283 284 283 281 281 282 285 284 284 282 284 282 279 278 279 277 277 277 277 277 278 278 278 278 279 279 277 276 277 277 277 275 276 275 272 273 273 274 275 275 273 275 275 275 275 275 276 276 275 275 275 273 274 274 274 272 271 271 271 272 272 272 270 270 269 268 268 267
283 284 284 283 284 286 285 282 281 280 279 281 280 282 282 281 280 280 280 280 281 280 279 280 283 282 281 281 280 281 278 278 279 277 277 278 278 278 277 277 277 276 275 275 275 275 277 279 278 276 275 276 274 272 272 272 273 270 271 272 274 273 274 274 275 275 274 274 273 273 273 274 271 272 271 271 271 270 270 270 270 270 270 268 268 268
285 286 280 285 284 281 282 281 279 282 283 283 281 280 282 281 281 279 280 280 281 280 280 279 280 283 283 282 279 279 278 278 280 279 279 278 277 277 278 278 277 277 276 277 274 275 279 277 277 277 276 276 274 272 271 271 270 268 270 271 270 272 274 274 272 272 270 270 271 272 271 272 271 272 271 270 268 270 271 271 270 270 271 271 270 271
285 283 283 284 279 281 284 284 281 283 282 285 285 284 282 281 280 280 279 281 281 281 281 281 280 280 280 281 281 281 281 280 279 279 279 279 279 278 277 277 276 276 274 274 274 273 274 274 276 276 275 273 272 272 271 270 269 267 267 267 267 271 274 272 271 269 270 269 270 268 268 268 269 267 269 269 269 268 268 269 274 272 271 270 273 275
286 286 285 283 283 283 287 284 287 286 285 287 287 284 283 281 281 282 282 282 281 281 282 282 280 280 279 279 279 281 282 281 279 279 278 278 278 278 278 277 276 275 274 273 274 272 273 273 271 272 272 271 269 271 271 269 267 266 265 266 267 270 271 270 270 269 269 267 269 269 268 267 268 267 267 267 267 267 267 266 269 276 277 276 274 275
Wind_Speed
1 4 5 7 10 11 7 10 10 4 5 4 3 2 4 4 6 4 4 4 1 0 7 9 9 9 10 11 12 4 4 6 8 10 11 9 10 11 11 12 11 10 10 5 6 6 6 6 5 4 3 4 3 3 5 6 6 6 6 7 6 5 5 6 6 6 5 9 8 3 6 8 4 4 6 7 7 7 6 6 6 7 6 6 7 6
3 3 8 11 13 9 10 8 2 4 1 1 1 2 5 2 7 4 1 1 1 4 4 4 6 10 13 12 12 1 5 10 13 14 14 14 13 12 13 13 13 9 2 5 5 5 4 4 5 5 5 6 6 4 5 7 7 7 7 7 8 6 5 4 5 5 4 3 4 6 7 7 5 5 6 5 5 5 5 7 7 6 6 6 6 6
2 9 11 14 1 3 2 4 4 5 3 1 3 2 2 7 4 10 7 2 1 2 9 6 7 10 10 11 10 7 11 10 12 14 18 17 15 13 12 13 10 6 8 7 7 6 7 7 7 6 6 6 6 6 7 6 7 7 6 6 7 6 5 4 4 4 5 6 6 6 6 4 6 6 5 6 6 6 6 5 6 6 6 6 7 6
2 5 18 3 5 4 1 2 4 1 0 3 1 1 8 3 0 6 1 2 0 4 3 0 5 9 9 9 13 14 12 11 10 11 15 12 15 16 16 15 14 14 11 13 12 10 8 8 8 7 7 7 5 5 5 6 7 6 6 6 6 5 4 5 5 6 7 8 10 10 7 6 7 6 4 8 6 7 9 8 6 7 6 6 7 6
11 3 1 6 7 8 5 3 5 4 6 4 6 5 3 4 7 8 5 3 1 2 2 5 8 10 8 14 10 10 4 6 11 8 11 12 12 10 6 6 11 15 15 13 10 10 10 11 11 10 8 7 7 7 7 7 7 5 7 6 6 6 6 5 7 8 9 11 9 8 10 9 11 8 7 8 7 6 5 6 8 6 6 6 7 6
10 7 3 6 5 5 4 3 7 8 7 3 7 11 10 7 7 5 3 4 6 4 3 2 7 6 5 10 13 6 3 3 7 8 15 16 10 8 10 13 8 8 9 15 16 15 13 12 10 9 8 8 8 8 6 6 7 7 7 7 7 6 6 7 7 9 8 9 13 12 11 8 7 8 5 7 8 7 6 7 3 6 5 5 6 6
6 1 5 6 6 5 6 5 4 8 8 3 6 10 12 9 6 3 1 2 3 4 1 1 3 12 2 7 6 6 4 11 7 7 15 13 10 8 12 9 10 11 10 7 8 9 11 12 11 10 10 10 9 7 6 5 6 7 7 7 7 7 7 7 8 9 7 7 6 8 10 11 12 12 3 3 4 6 5 5 6 5 5 4 6 6
2 2 5 4 5 6 5 5 5 12 7 4 2 4 6 5 5 6 4 6 6 1 4 1 2 6 16 6 6 10 9 8 9 14 16 13 9 9 9 8 9 11 12 13 14 13 11 13 14 14 11 10 9 7 6 6 6 8 8 8 8 7 7 7 8 8 6 8 8 8 8 6 6 8 11 7 6 4 5 7 6 6 5 5 4 6
6 5 5 4 2 4 8 7 4 9 7 4 0 6 5 6 5 2 3 3 0 3 9 1 0 4 8 3 3 3 3 6 13 17 15 10 8 9 8 9 9 11 13 14 14 15 15 14 13 11 11 9 8 7 8 7 7 7 7 7 8 8 8 8 7 7 5 5 7 9 10 8 5 7 8 7 5 6 5 8 5 6 6 6 5 5
1 5 9 10 8 9 5 2 8 11 5 2 5 8 7 7 6 3 3 2 2 1 8 5 3 3 19 3 3 2 3 7 11 15 14 7 6 7 9 9 8 7 8 10 12 12 11 11 11 9 8 8 7 7 6 6 7 8 8 8 8 8 8 8 8 6 5 5 7 9 9 13 10 7 6 6 8 6 5 8 6 6 6 5 6 5
1 3 4 4 7 4 5 2 3 6 2 7 4 7 6 8 4 3 6 2 2 6 9 8 10 7 13 1 8 8 7 9 11 7 8 4 4 4 6 7 9 9 9 9 9 8 9 7 9 9 11 9 7 7 8 8 8 8 8 9 9 8 7 7 7 6 7 7 6 7 12 15 15 10 11 9 7 7 5 8 6 6 6 5 6 5
1 2 1 1 4 3 4 4 4 1 3 6 2 4 4 3 6 4 4 4 1 8 2 8 12 11 12 3 5 6 3 4 7 8 9 6 6 6 5 6 8 8 9 8 8 8 9 7 9 9 10 10 9 8 9 8 8 8 8 9 9 8 8 7 6 6 6 6 6 5 8 14 15 15 11 12 12 9 9 9 8 6 6 5 5 5
6 6 2 3 4 9 3 6 4 3 0 3 5 7 6 4 5 3 3 2 6 9 0 3 1 4 19 11 2 7 10 8 9 9 9 7 7 6 5 7 7 7 8 10 10 9 10 11 12 12 11 10 10 10 11 10 9 8 8 10 11 10 9 8 7 7 7 7 7 8 7 8 11 12 12 11 11 8 10 9 9 8 8 6 7 5
7 1 1 2 2 5 9 9 3 2 6 5 8 8 7 0 1 4 5 2 7 6 3 1 1 9 2 7 10 17 19 12 6 8 8 7 8 7 6 6 7 8 9 10 10 10 11 12 12 12 12 12 10 11 11 11 10 9 8 9 11 10 9 8 7 7 7 6 7 7 8 9 10 10 10 9 11 9 8 8 10 9 9 9 9 8
5 6 8 8 6 5 10 12 14 7 11 12 3 12 11 9 7 4 6 6 7 4 2 5 2 8 4 5 2 9 5 5 5 6 5 6 6 5 3 5 5 7 8 9 11 12 13 13 13 13 12 12 11 11 11 10 10 9 9 9 10 9 6 8 9 7 7 7 7 7 7 8 7 9 9 8 7 8 9 7 8 7 6 7 7 7
11 8 6 8 1 9 14 2 6 6 3 2 2 5 4 9 7 7 4 3 1 2 4 2 7 5 6 2 5 4 5 7 6 6 4 7 3 2 4 7 9 10 10 10 11 11 11 12 12 11 11 11 11 11 10 11 11 10 10 10 10 12 10 9 9 8 9 8 7 7 9 8 7 6 7 7 6 5 5 7 8 8 6 5 6 4
2 6 1 3 4 6 7 3 3 5 8 5 6 8 6 2 4 2 3 1 1 2 12 4 9 7 8 11 11 13 6 9 5 8 7 7 2 2 6 7 8 9 10 11 12 12 12 10 10 11 13 11 11 11 11 11 12 12 11 10 10 9 7 9 10 10 9 9 9 8 8 8 7 8 10 10 9 7 5 5 5 7 6 5 5 6
8 6 1 4 5 1 0 0 3 4 4 9 4 8 2 2 3 3 6 2 3 5 8 4 10 8 1 14 3 2 5 11 8 13 9 4 3 7 9 8 9 10 10 8 7 6 10 11 13 11 10 12 13 13 11 11 11 11 11 12 12 11 12 8 9 10 10 10 9 9 8 7 8 8 7 7 9 7 7 5 5 6 7 6 6 6
3 6 1 1 1 4 2 2 2 2 3 6 6 5 8 4 3 2 3 5 1 5 7 5 3 11 11 12 2 2 7 9 14 13 6 12 10 11 7 6 5 5 6 9 10 10 11 12 12 12 12 10 10 11 11 11 10 10 10 10 13 15 13 12 9 9 9 10 9 8 9 9 8 6 7 6 7 7 8 8 7 7 7 7 6 7
1 6 3 1 3 1 1 3 10 3 2 2 3 4 1 3 1 6 8 2 5 5 1 10 7 17 6 8 9 9 11 10 9 6 10 14 14 8 7 7 9 10 10 10 11 11 12 12 12 13 13 13 12 12 11 11 10 12 12 12 9 8 9 10 10 10 11 9 9 9 7 7 6 6 7 8 9 8 8 8 8 8 8 8 7 6
4 1 7 0 2 2 4 5 9 12 10 1 2 4 1 1 1 4 1 4 4 4 4 6 11 8 4 6 9 10 11 10 9 10 9 11 7 5 8 10 10 10 11 11 12 12 12 11 11 10 10 10 9 8 10 11 13 12 11 12 11 13 11 11 11 11 11 10 9 10 11 10 8 9 8 8 7 8 8 7 7 7 6 7 7 7
3 3 9 2 0 7 6 3 5 10 12 13 15 15 15 10 5 4 7 2 1 2 7 2 14 11 3 3 7 7 5 7 5 3 9 8 3 5 7 8 9 10 9 8 8 8 9 9 9 9 8 8 9 10 11 11 11 12 13 12 11 11 12 13 11 11 10 9 10 10 10 9 7 8 7 8 8 7 8 7 7 6 6 7 6 6
7 3 5 6 7 9 4 0 1 2 1 1 2 4 6 7 6 5 7 6 1 5 3 3 1 17 3 2 3 4 3 5 3 1 7 7 5 4 6 6 5 6 7 9 9 9 9 9 9 9 10 11 11 11 10 10 12 12 12 12 11 12 11 11 11 10 10 10 10 10 8 8 8 8 8 9 7 7 7 7 6 6 7 6 5 4
6 3 4 3 1 3 3 3 1 1 3 1 1 1 6 10 9 11 7 5 9 2 3 1 4 9 3 0 3 4 3 6 4 4 7 8 5 3 5 7 8 7 6 5 6 7 8 8 7 8 10 11 10 11 12 11 10 11 12 12 11 12 12 10 9 9 10 9 10 9 9 9 8 9 9 9 7 8 6 6 6 6 7 6 6 6
5 4 8 2 1 1 3 3 2 1 1 3 4 6 11 11 6 2 5 2 2 9 10 9 15 14 3 2 2 3 4 4 6 4 6 7 6 4 6 7 7 7 7 8 10 10 9 10 12 13 12 12 12 11 11 12 12 11 11 11 12 11 10 9 8 9 9 10 11 10 11 10 9 10 10 9 8 8 8 7 7 6 7 7 7 6
9 10 12 11 14 13 9 12 16 12 11 4 3 6 5 10 10 5 7 4 7 9 13 9 18 5 2 3 4 4 3 5 7 5 4 7 6 4 4 6 7 9 10 9 9 11 14 13 10 11 13 12 12 12 11 11 10 10 10 11 10 11 10 10 9 10 10 10 12 11 12 11 10 11 12 11 10 10 10 9 9 9 7 8 9 7
3 3 11 16 18 18 17 2 5 12 6 9 9 13 13 10 12 12 7 6 17 4 9 18 22 8 6 1 3 5 2 5 5 5 5 5 5 4 4 5 6 8 9 11 11 9 6 10 16 14 12 12 11 11 10 11 11 10 10 11 10 10 11 10 10 10 11 11 12 12 13 13 12 11 11 11 11 9 9 10 9 9 9 8 8 9
3 4 13 16 18 17 7 4 9 20 17 17 12 13 15 14 15 14 14 18 7 4 14 20 6 11 22 10 10 7 7 5 8 8 8 8 6 4 5 4 5 6 6 7 8 12 15 12 9 11 12 10 9 8 9 9 10 10 10 11 9 9 9 8 10 11 11 11 12 13 13 12 10 10 10 9 9 9 9 9 9 9 8 7 8 9
7 13 13 9 14 17 2 4 9 10 14 14 16 16 17 18 17 20 23 16 10 14 22 6 12 15 21 14 14 10 10 12 14 13 9 5 2 3 4 5 7 9 8 10 13 11 11 12 10 7 7 8 7 10 9 8 8 7 7 7 8 8 10 9 9 10 10 10 12 12 10 8 8 7 7 8 8 9 9 8 8 8 7 7 7 6
4 5 5 6 13 13 4 5 7 10 5 3 12 16 19 21 24 23 21 19 16 16 18 17 8 14 21 6 7 9 13 13 7 1 1 4 6 5 5 7 9 9 10 12 11 10 9 9 9 10 9 9 11 9 9 9 9 9 10 9 9 9 8 10 10 10 9 10 9 6 6 7 7 7 7 8 9 9 8 8 8 8 8 8 7 7
4 4 6 3 5 12 6 5 6 7 6 8 9 14 19 21 21 22 20 18 17 17 23 15 14 26 13 5 11 10 1 0 2 5 8 7 4 5 7 8 9 10 10 9 9 11 10 9 10 11 12 13 12 12 11 10 8 7 8 8 10 10 10 10 11 11 11 10 7 6 6 7 7 7 9 9 8 7 9 10 8 7 7 6 7 8
5 4 2 4 8 12 4 9 6 5 4 5 10 17 18 11 11 12 13 13 10 18 17 13 19 26 2 8 6 4 5 8 10 9 7 8 7 6 9 11 10 11 12 12 11 9 11 12 13 14 15 15 14 14 12 12 10 10 12 11 11 10 9 10 11 11 11 9 8 8 9 9 8 8 8 8 9 8 8 7 8 8 8 7 7 7
7 6 6 8 10 13 4 11 9 6 2 5 17 27 12 11 15 12 16 16 20 19 14 17 23 21 16 4 4 6 8 9 9 9 9 7 7 11 12 13 12 10 11 12 12 13 12 13 14 13 12 11 12 14 15 12 11 14 13 11 10 9 10 10 10 9 9 8 9 9 10 10 11 10 9 9 8 7 7 8 8 8 9 9 7 6
4 7 8 7 9 8 6 8 9 6 11 16 10 7 19 20 19 18 18 18 17 14 15 19 21 21 10 5 9 10 10 12 12 13 11 11 11 10 10 8 9 11 10 11 13 13 11 9 9 11 13 13 12 11 9 11 12 8 5 6 7 10 10 11 11 11 10 10 10 10 9 10 9 10 9 7 7 7 7 8 10 8 7 6 7 8
6 7 6 3 5 6 6 9 7 14 17 7 2 2 16 23 22 22 21 17 19 19 20 21 21 21 16 11 11 10 10 10 8 9 8 7 5 8 12 13 11 11 12 10 8 8 11 13 12 10 10 11 11 10 10 9 9 9 9 10 11 10 11 11 11 10 11 11 10 9 9 10 9 9 8 8 8 8 8 9 8 8 8 8 9 10
6 9 4 3 3 3 5 9 8 11 3 5 1 2 0 3 9 12 15 20 19 21 22 23 26 22 20 16 10 7 6 6 4 4 5 6 8 10 9 11 13 10 9 10 12 12 11 12 14 15 14 9 10 11 12 12 11 11 12 10 12 11 11 11 12 12 11 12 11 11 10 10 9 8 7 8 8 9 9 9 9 10 8 7 6 5
12 7 4 5 5 7 5 11 11 6 9 8 5 4 11 10 9 14 11 17 19 19 18 19 22 20 18 18 16 6 2 1 4 8 3 8 9 8 10 9 6 9 10 9 11 12 12 12 13 11 9 10 12 12 12 11 11 11 10 11 11 11 11 11 12 13 13 12 11 11 10 10 10 10 10 9 9 9 10 11 10 8 7 8 8 9
14 14 8 10 7 7 7 4 1 3 12 18 5 3 8 8 14 13 10 13 11 16 19 19 20 20 20 19 13 3 4 1 12 10 6 8 5 5 2 2 4 5 6 6 4 3 5 6 4 7 11 11 11 11 10 11 12 12 11 11 10 11 11 12 14 13 12 11 10 10 10 11 11 11 10 10 12 12 11 9 7 8 8 10 11 11
6 9 10 13 5 7 7 8 7 9 12 9 2 9 9 5 11 7 3 12 7 11 13 16 20 22 18 16 5 8 5 9 14 11 7 5 5 5 6 4 5 7 7 8 10 10 9 7 8 8 8 10 11 10 11 12 13 12 12 11 11 11 12 14 14 12 11 10 9 9 10 10 11 11 11 12 12 11 11 11 11 8 7 8 7 7
12 8 6 11 9 8 9 9 10 5 9 4 5 2 5 7 12 9 3 12 2 13 13 16 19 18 16 9 9 10 10 12 17 8 3 8 7 6 7 7 5 4 3 3 2 3 5 7 9 9 11 12 10 9 11 11 11 11 11 10 9 11 13 15 12 8 8 8 9 9 9 9 11 10 11 12 10 8 9 7 6 7 8 7 6 6
7 5 9 15 13 13 14 7 3 6 4 3 6 5 7 8 9 9 14 9 5 4 3 10 14 15 7 8 11 11 13 6 3 4 5 6 6 3 2 2 2 3 5 5 4 6 7 7 8 9 9 8 9 10 10 11 11 11 10 10 10 14 14 7 6 8 9 8 8 8 9 8 9 11 10 9 10 9 7 6 7 6 7 8 6 5
7 6 3 6 11 11 10 11 10 5 5 7 2 15 11 9 5 17 6 1 8 6 3 7 10 5 6 11 11 8 3 1 1 2 6 5 6 4 4 5 6 5 4 3 4 6 7 6 6 6 6 6 10 10 10 11 11 9 9 9 13 12 4 6 7 7 7 8 8 8 8 9 8 8 9 7 7 7 7 6 6 7 7 6 6 7
9 8 7 10 5 3 3 10 4 10 4 11 14 2 4 7 6 4 3 0 2 4 7 5 7 6 8 7 4 4 4 3 3 3 3 4 6 6 6 6 7 8 8 7 5 3 7 8 7 7 7 7 8 8 9 10 10 8 7 11 11 5 6 6 7 7 7 7 8 8 9 8 9 9 7 8 8 9 9 7 7 6 7 7 7 8
7 6 3 6 7 8 11 11 8 4 5 13 18 11 10 11 3 5 7 3 1 5 6 6 4 6 7 9 8 4 4 5 3 4 4 3 4 4 4 4 4 5 4 3 4 7 6 8 7 7 5 6 6 7 8 11 10 8 9 11 4 5 5 6 6 7 7 7 7 7 8 8 8 8 7 8 8 8 8 8 8 7 7 8 8 8
8 10 5 9 6 9 6 7 1 3 11 11 2 1 5 8 2 7 1 5 9 6 4 6 7 5 7 9 8 9 5 3 4 4 5 6 6 6 6 5 5 6 6 8 7 5 6 10 10 8 6 4 6 6 7 7 11 9 10 5 6 6 7 7 7 8 7 7 8 8 7 7 8 8 8 8 9 9 8 7 7 8 6 7 7 8
4 1 1 2 4 1 2 2 0 0 2 8 1 1 1 5 1 3 5 5 3 4 8 7 6 8 6 7 10 2 4 6 6 4 3 4 4 4 4 5 5 5 5 6 5 5 6 7 8 9 8 4 4 6 6 6 9 12 6 5 6 7 7 8 8 7 8 7 7 8 7 8 6 7 7 7 7 9 8 10 9 9 8 8 8 8
3 1 1 3 1 6 8 6 5 3 1 5 3 0 0 0 3 3 3 1 4 4 4 1 8 9 9 8 8 9 6 5 6 4 4 4 4 4 5 6 5 5 7 8 5 8 8 8 9 8 8 8 4 5 5 6 4 4 5 7 7 7 8 8 9 8 7 8 7 6 7 8 7 7 6 6 6 6 7 7 7 8 8 8 9 9
4 4 3 2 3 10 5 1 2 3 4 3 4 4 4 4 2 3 1 1 3 4 2 4 5 6 4 5 4 8 8 6 8 7 5 6 6 5 5 6 6 4 2 4 5 5 6 8 9 8 7 8 6 5 5 5 5 4 5 5 7 7 8 8 8 9 8 7 6 7 7 7 8 9 7 7 7 8 7 6 7 9 11 11 12 11
3 8 5 7 7 2 3 3 3 2 0 3 4 4 4 4 6 4 3 5 6 8 6 4 1 6 7 6 7 8 9 7 7 9 9 6 5 5 6 6 5 5 6 7 4 5 7 7 7 7 7 6 5 5 5 5 4 4 5 5 6 7 8 7 5 5 5 5 5 6 5 6 6 7 7 6 6 7 8 10 10 11 10 9 9 11
6 8 3 5 2 6 14 10 7 4 4 6 10 9 4 2 3 5 4 5 5 8 7 8 5 4 4 6 8 9 9 9 6 6 8 8 8 7 6 6 5 6 4 3 4 3 4 5 6 7 6 4 5 5 5 5 4 3 4 5 5 6 7 5 5 4 4 4 5 4 5 5 5 4 5 6 7 7 7 7 9 8 8 8 8 13
13 11 10 10 11 13 10 6 13 5 1 3 8 6 7 5 5 6 8 8 4 4 7 10 7 4 2 1 1 5 7 9 9 6 6 6 6 7 8 9 9 7 6 5 6 4 4 4 4 4 4 4 4 5 5 5 4 4 4 5 5 5 6 6 6 4 4 4 5 5 5 4 5 5 6 6 6 6 6 5 6 11 14 11 8 10
Wind_Direction
104 137 172 197 217 211 206 194 205 181 142 108 103 124 215 221 279 281 272 263 282 58 229 222 231 239 253 255 262 213 182 232 244 244 239 233 223 222 222 218 216 212 213 183 188 190 194 195 193 202 179 163 152 172 157 144 143 146 144 141 134 144 140 130 132 132 135 124 106 51 85 100 74 60 71 74 70 66 61 64 68 72 78 80 83 79
65 141 235 222 221 199 202 203 133 101 122 184 140 181 269 162 250 240 257 360 333 173 293 250 241 248 248 257 261 216 164 228 225 231 238 234 226 223 218 220 214 209 108 156 183 199 202 194 191 196 183 160 158 186 169 158 158 151 149 148 142 148 156 136 134 132 107 75 107 129 117 114 94 83 84 75 52 58 62 61 64 65 67 72 75 80
150 197 228 230 152 110 102 165 191 183 194 79 198 228 276 265 250 278 267 276 263 122 256 270 256 256 252 252 263 237 219 231 222 217 225 222 226 225 219 220 208 173 191 180 189 184 192 187 186 191 184 178 175 173 167 162 151 151 150 147 147 149 146 117 94 99 101 102 102 109 109 97 96 58 70 70 71 68 64 43 52 62 67 77 75 74
254 281 245 205 129 121 98 114 136 115 46 187 142 161 235 233 88 292 301 10 230 175 266 6 306 277 277 260 250 246 223 234 235 228 237 225 225 222 216 207 199 197 182 188 185 187 186 181 184 188 187 179 165 171 161 160 159 153 149 152 147 135 117 106 94 96 91 94 95 86 82 77 82 104 79 73 64 68 58 54 50 45 62 66 78 72
202 208 306 153 166 170 184 132 125 147 232 238 200 208 229 208 230 193 252 318 292 335 43 318 287 276 240 261 264 254 251 240 254 245 253 247 235 236 233 217 204 197 187 181 180 184 184 183 189 188 183 167 171 176 172 166 164 157 154 147 140 136 131 115 116 119 122 114 94 94 90 93 96 77 81 86 57 41 52 72 35 29 55 71 79 80
271 254 91 108 169 180 137 137 192 156 230 278 227 199 214 214 231 261 322 356 3 328 346 63 319 277 257 236 245 272 358 267 255 236 248 244 232 222 220 217 197 202 187 184 184 183 182 182 179 183 181 175 173 178 176 167 157 147 144 139 132 128 131 132 124 135 140 138 134 132 126 120 111 112 114 120 129 122 97 93 90 64 56 74 83 81
220 191 147 169 149 171 183 189 223 165 206 206 270 196 213 213 216 230 242 87 293 243 292 36 228 285 235 254 239 255 239 251 271 240 250 249 235 215 224 210 192 187 180 183 181 179 180 183 178 183 186 178 175 176 160 156 152 143 140 142 142 137 136 136 142 147 142 136 137 134 137 142 143 132 88 72 63 107 102 97 90 83 62 58 88 81
126 223 108 88 118 150 170 208 238 179 151 232 253 177 194 186 196 219 176 188 238 258 297 44 120 270 293 258 212 213 221 253 277 266 252 245 238 225 224 206 195 189 185 182 184 185 186 180 181 183 182 177 176 158 153 154 150 147 144 140 136 132 137 145 152 155 160 150 146 131 118 111 120 134 137 134 120 98 111 101 94 91 75 64 66 90
154 183 172 151 149 148 192 206 175 152 153 217 264 147 163 183 197 138 153 195 220 25 285 309 359 317 251 275 331 155 207 264 254 253 259 248 229 228 220 210 201 193 189 181 179 185 185 182 182 179 177 173 156 158 160 158 151 138 137 139 140 143 148 155 161 157 156 154 146 137 129 110 78 102 115 120 112 116 117 104 94 92 87 77 64 71
302 173 202 175 158 208 212 231 154 160 195 251 123 87 81 78 67 104 95 105 317 34 257 196 190 213 277 205 143 347 172 231 243 249 254 263 234 218 216 213 198 188 186 188 188 180 181 181 177 175 162 161 164 156 148 143 143 146 144 146 148 151 156 161 162 154 139 138 143 139 135 126 124 121 110 119 126 124 129 111 108 100 98 96 87 76
256 287 169 135 200 194 119 30 174 185 159 131 90 73 28 41 32 25 62 79 20 262 250 189 204 161 279 182 185 144 198 201 231 269 276 297 292 258 231 205 189 185 184 183 178 180 178 175 167 164 169 167 150 146 149 149 152 154 153 153 155 157 155 160 157 150 148 143 149 148 148 139 138 143 139 135 130 131 131 123 120 117 111 101 102 99
359 23 154 245 101 109 102 79 24 75 139 133 106 120 61 345 12 35 343 37 121 267 199 201 188 183 225 284 268 238 278 251 211 232 260 279 264 246 217 207 193 182 179 172 166 169 166 162 167 168 169 164 159 151 154 156 155 157 157 156 152 152 158 161 153 144 144 144 143 148 154 145 146 148 153 149 149 156 144 137 134 132 117 110 108 108
262 220 242 329 212 134 118 84 5 42 92 85 97 92 126 246 34 288 24 258 199 239 333 8 104 352 240 243 236 266 259 257 225 223 238 249 263 252 227 204 187 176 170 174 173 167 172 174 171 177 171 163 167 168 165 163 161 160 160 163 159 166 164 163 154 154 151 147 152 153 154 148 146 148 151 151 147 160 148 148 142 145 137 141 130 146
269 296 281 243 73 238 145 158 173 53 218 144 154 153 126 134 215 262 270 266 305 295 282 336 86 252 316 287 219 247 246 237 240 230 236 234 244 242 219 193 180 181 180 177 173 176 178 178 176 178 172 172 172 172 170 165 164 164 164 168 166 167 166 153 149 150 151 153 152 154 154 154 152 152 153 157 152 160 154 154 151 153 153 155 155 155
239 304 241 139 240 174 182 197 183 162 164 201 113 161 185 154 157 211 202 213 229 228 285 278 121 234 117 244 256 249 308 310 257 251 245 255 258 266 222 176 173 178 186 178 178 182 181 181 177 177 175 175 175 173 170 167 168 165 166 169 165 155 165 157 154 151 154 151 150 152 155 155 157 155 154 154 155 156 155 160 150 151 151 148 155 153
210 237 267 208 297 157 187 211 107 89 77 215 168 57 99 215 144 229 199 177 251 327 333 205 212 192 195 245 295 242 282 291 267 281 281 265 268 206 158 181 189 190 184 184 183 182 185 181 179 176 177 176 175 173 171 170 168 169 169 169 167 164 164 165 157 162 158 157 153 153 157 164 158 151 142 139 143 153 156 154 152 150 148 141 134 128
47 270 282 343 50 174 182 132 176 149 197 205 110 203 208 158 126 76 29 42 110 36 255 140 276 272 304 274 234 244 249 267 299 279 261 258 260 202 210 198 198 193 187 188 190 186 180 178 185 183 177 175 174 175 177 175 172 169 164 165 161 160 163 170 168 160 159 156 157 162 161 159 160 161 161 159 158 156 149 144 142 141 137 128 132 133
157 237 304 95 207 317 148 182 106 26 143 98 187 226 118 109 106 148 226 347 67 211 271 135 242 284 50 282 353 48 243 259 270 263 250 275 232 216 218 204 197 196 194 191 189 187 184 182 181 183 183 179 178 176 174 175 171 169 168 167 163 163 169 179 168 161 160 161 164 161 164 167 166 164 155 151 154 151 143 139 133 130 138 150 145 134
142 280 313 317 130 305 350 107 35 355 23 147 195 189 129 237 246 290 96 258 217 256 274 281 235 261 196 248 77 197 202 242 249 256 281 266 237 229 219 215 203 187 179 182 185 183 186 186 185 181 182 182 178 176 174 168 167 165 167 174 169 170 175 170 170 168 167 167 163 167 166 166 163 162 151 145 146 149 151 154 155 156 148 133 136 133
113 194 293 333 136 307 12 137 199 189 4 47 80 105 66 98 173 139 199 179 119 257 49 277 95 265 146 223 186 220 201 217 237 262 250 249 246 219 208 202 198 195 194 188 189 191 187 187 185 182 179 179 179 177 174 168 168 172 171 170 174 168 165 166 170 169 169 170 161 159 154 159 159 156 154 156 156 158 161 162 158 152 151 151 138 136
210 156 251 272 312 114 190 195 202 161 175 156 134 187 171 35 246 113 7 142 169 182 188 278 295 261 235 199 183 202 202 216 212 232 248 255 258 211 205 198 199 199 194 193 192 188 186 185 184 185 182 179 174 174 171 174 178 177 172 175 171 168 170 175 175 171 172 163 164 161 165 163 161 161 156 158 164 158 159 160 157 158 150 135 146 146
171 176 206 138 267 221 246 255 214 196 195 185 180 192 180 141 146 151 250 58 131 142 244 151 258 277 260 177 198 194 222 221 235 241 273 280 298 214 211 209 203 199 200 195 193 184 184 184 182 181 180 175 173 179 179 178 177 180 180 178 172 171 175 175 178 177 167 168 161 167 164 162 159 155 156 160 161 160 159 160 157 150 140 150 149 153
168 146 106 202 213 198 215 264 246 207 79 160 176 237 187 183 153 168 205 229 17 248 108 197 49 275 183 177 237 228 224 267 273 232 267 282 272 236 211 200 208 208 195 191 185 184 185 186 183 183 184 183 185 183 179 179 185 183 181 176 178 175 182 179 175 173 165 163 164 166 162 157 159 157 161 162 164 162 160 156 148 145 147 146 149 148
102 143 188 261 336 311 313 306 34 106 112 2 325 120 137 197 190 201 199 173 185 173 177 271 258 259 358 129 273 258 255 263 257 209 250 277 269 223 191 190 193 191 190 185 183 180 181 175 171 177 189 186 186 185 188 188 187 184 183 181 175 182 178 175 173 168 163 163 164 158 156 165 159 160 164 166 166 162 159 154 148 147 145 146 149 155
153 240 192 144 7 346 342 341 316 347 111 198 165 197 199 203 180 105 94 86 197 215 170 161 238 252 250 354 303 323 318 307 276 246 206 255 268 214 202 196 191 183 175 183 183 180 175 178 184 190 189 190 191 191 188 189 191 187 186 179 180 180 174 170 166 166 167 165 162 163 164 166 166 167 169 167 164 163 157 157 154 156 157 155 162 160
185 168 175 193 209 217 216 205 211 197 194 186 234 189 188 189 174 154 226 188 229 224 157 204 245 246 296 320 305 289 323 299 269 242 256 230 256 230 208 194 193 187 188 185 185 182 191 190 185 189 194 193 194 191 188 190 189 187 185 185 177 174 172 172 165 169 166 170 167 169 171 171 172 176 174 170 168 167 167 165 166 165 166 169 163 157
193 223 197 197 204 216 226 227 69 102 83 191 211 177 201 201 196 199 209 195 221 198 177 224 232 250 266 255 276 275 264 249 286 305 287 282 255 232 209 196 193 194 189 190 190 191 183 195 198 198 194 196 193 189 189 188 188 188 187 184 181 176 170 167 168 170 172 175 175 174 180 177 180 176 176 176 173 168 171 172 170 169 171 173 169 163
65 208 216 217 221 227 216 156 174 152 179 201 180 199 199 191 193 192 203 222 117 104 248 242 204 244 253 229 247 247 274 271 259 260 272 266 270 212 203 193 193 198 195 181 190 194 200 200 196 198 199 193 192 189 191 193 190 187 186 185 177 170 168 169 171 175 178 178 182 185 185 181 174 177 179 174 169 173 173 170 171 173 166 166 172 169
171 202 219 211 234 238 143 152 164 174 181 187 195 195 193 201 195 201 218 215 148 209 236 230 154 227 251 234 237 227 229 239 242 242 236 241 221 173 164 186 200 205 197 195 203 199 196 199 199 192 191 194 184 194 193 187 192 187 185 180 175 168 176 167 171 179 182 184 190 192 180 169 174 171 171 171 169 172 174 174 171 167 166 172 173 169
143 251 210 185 228 243 220 140 173 172 190 186 206 202 200 198 203 205 215 215 209 231 246 251 236 248 249 232 207 222 220 235 245 183 142 192 219 187 185 211 213 209 204 207 204 200 198 196 186 188 184 187 192 189 188 190 191 190 185 181 174 173 171 160 175 177 184 192 196 179 165 168 168 171 167 170 177 177 172 173 173 170 170 177 173 162
147 234 134 125 220 248 222 137 170 182 159 204 223 219 212 207 204 203 210 218 218 238 244 254 274 266 258 173 234 231 226 93 197 224 223 229 200 188 204 216 219 212 211 208 200 197 192 189 188 184 189 192 187 189 189 191 188 183 186 184 179 179 174 167 174 182 184 189 181 163 154 164 177 169 178 181 176 176 177 176 172 171 173 174 169 161
162 233 71 132 207 244 173 166 168 170 183 209 234 230 221 197 206 212 216 216 192 223 235 249 251 251 151 193 238 195 196 209 222 227 232 235 212 194 208 222 217 213 205 201 199 190 189 192 193 194 194 191 189 187 186 184 182 180 196 187 182 179 168 175 180 182 185 183 170 165 169 174 171 176 184 179 186 183 179 171 170 174 175 171 168 166
185 152 165 177 212 233 187 158 158 125 144 280 245 232 186 191 208 207 218 210 207 206 213 222 240 249 249 161 185 225 220 226 231 226 228 237 217 205 213 219 218 211 204 193 192 195 194 197 199 196 196 190 189 191 192 180 177 194 192 183 178 156 168 179 181 182 181 179 178 179 177 175 177 181 182 188 184 178 172 174 175 176 177 180 172 161
150 174 192 173 210 216 174 156 128 156 213 226 253 136 168 192 197 206 217 216 218 203 218 223 237 249 244 186 206 221 212 225 219 228 208 208 206 215 228 228 219 208 198 197 198 196 194 187 192 197 195 195 194 191 176 178 185 176 158 161 155 168 174 176 183 183 185 180 187 183 179 178 179 184 184 176 173 169 177 180 189 183 174 162 164 178
170 192 197 161 185 188 147 133 159 210 222 230 20 222 176 190 197 205 224 218 220 218 230 243 248 253 247 226 217 220 220 234 234 233 232 232 202 200 207 214 213 202 201 196 189 190 190 191 191 187 186 192 183 173 168 177 172 154 156 164 172 178 176 183 180 184 186 189 188 179 178 180 183 183 177 173 169 173 184 189 184 178 179 178 183 182
189 194 150 210 147 58 162 173 214 218 246 306 240 104 18 121 188 197 234 237 227 221 219 232 242 245 251 251 239 224 227 249 294 265 229 229 198 201 199 209 214 196 189 190 191 196 187 188 187 187 193 165 158 175 178 180 167 165 176 171 176 179 182 179 185 190 187 193 188 183 181 179 180 177 171 172 177 182 188 188 191 188 181 178 186 192
193 199 191 216 181 200 190 203 231 12 316 279 242 196 157 167 156 175 212 245 225 223 218 229 241 246 250 251 248 224 184 98 266 277 244 211 214 212 201 211 177 184 194 199 192 196 193 190 191 184 155 164 172 172 182 170 168 169 165 173 181 178 180 182 191 195 195 194 183 183 179 176 174 178 180 178 178 187 192 194 194 191 177 184 192 191
188 196 188 203 214 190 184 208 327 220 245 245 226 176 179 170 169 176 185 264 242 202 211 210 230 235 239 244 242 159 106 194 269 259 246 227 211 194 199 179 191 192 190 184 177 176 180 182 152 153 162 166 175 177 165 164 166 168 171 178 176 177 183 189 201 199 192 189 183 181 177 179 179 181 183 183 192 195 199 197 196 195 183 190 191 199
213 209 192 205 188 179 207 213 199 212 237 243 234 184 177 150 151 114 86 255 264 167 199 192 220 232 227 232 205 117 140 228 251 246 226 173 185 189 181 193 182 188 186 179 180 186 182 176 163 156 153 157 173 174 163 163 164 167 178 178 179 181 188 201 204 192 188 186 176 175 178 181 183 186 186 191 196 194 195 195 197 189 180 199 199 209
193 192 160 209 206 194 201 211 221 206 240 250 176 136 162 136 118 115 85 254 215 179 187 183 212 227 229 211 151 174 182 225 238 246 181 168 182 185 177 181 179 171 174 161 167 155 140 135 130 148 164 178 175 151 154 155 163 172 175 180 173 187 201 207 197 178 175 176 175 177 181 183 185 189 189 196 195 191 198 187 170 177 183 193 195 197
189 193 195 204 206 210 209 228 284 274 270 184 170 161 158 148 124 145 213 235 186 166 174 189 208 221 199 158 164 191 217 222 223 178 132 127 106 111 56 72 124 143 156 156 149 133 143 154 159 165 167 156 146 151 153 155 163 177 178 173 180 203 208 186 156 172 177 171 170 176 180 182 186 190 195 193 193 189 184 178 183 171 177 190 189 187
203 192 221 211 216 210 209 221 227 266 235 156 204 157 166 109 199 214 223 171 155 187 204 182 214 209 159 183 190 205 163 219 359 45 127 140 147 141 131 125 111 80 54 82 129 144 138 134 125 118 119 136 147 153 156 159 166 173 168 175 201 208 149 154 169 160 160 169 175 177 178 182 189 191 190 184 168 173 186 186 175 181 181 177 180 196
184 176 190 198 200 234 182 223 188 229 229 130 125 80 281 191 238 180 154 317 177 177 158 202 189 202 166 187 174 141 131 91 103 97 90 113 124 144 145 147 144 146 143 138 132 136 135 129 132 139 141 144 147 150 157 156 161 165 169 192 208 155 154 156 154 159 164 169 171 177 182 184 184 186 181 182 182 180 188 177 179 181 173 177 187 199
179 189 175 215 184 204 200 210 209 209 105 157 139 177 202 211 192 167 137 124 201 168 175 161 205 179 179 154 147 144 153 132 105 141 108 100 125 117 124 114 107 108 104 83 121 137 129 120 122 122 125 135 142 148 152 156 155 163 177 208 148 142 138 144 149 151 161 172 179 176 182 184 185 187 184 181 176 181 180 180 183 180 186 186 188 196
200 198 174 203 176 203 213 231 228 188 169 194 144 247 219 188 146 170 157 155 158 211 192 160 177 168 168 151 144 147 148 206 167 171 146 155 152 149 142 147 143 144 138 136 137 139 136 139 134 125 115 122 140 146 151 155 155 163 193 183 141 149 150 149 150 157 171 176 180 183 184 178 183 185 185 180 174 180 187 183 173 187 193 181 195 199
339 205 18 108 251 14 327 184 77 330 228 222 224 221 263 154 209 127 147 133 217 166 171 173 166 155 147 152 127 184 160 159 141 155 128 145 139 141 113 108 104 100 112 113 110 111 119 109 112 119 122 115 140 152 158 163 156 172 191 151 150 148 148 149 152 167 178 180 182 184 170 176 185 184 184 181 186 191 189 184 185 193 186 188 204 205
249 130 144 198 264 178 241 186 177 211 237 204 224 267 268 227 180 142 168 250 159 159 179 195 159 158 163 164 155 153 156 160 150 153 150 150 154 148 146 133 133 142 144 137 142 128 120 123 120 129 137 147 182 167 170 162 166 138 135 153 149 149 147 153 162 170 174 181 182 169 170 177 182 182 182 187 189 193 189 184 185 189 190 194 200 208
276 171 169 219 192 202 237 304 283 295 259 238 183 168 197 193 124 108 127 78 129 119 131 139 120 113 127 143 148 143 153 163 153 163 170 177 167 156 147 149 145 124 94 118 138 128 127 132 136 143 147 155 177 173 164 157 156 137 134 141 145 143 144 154 168 171 183 180 170 176 177 187 179 177 186 192 187 190 196 197 187 193 202 197 200 201
148 121 200 194 205 310 340 279 264 344 348 261 248 259 231 189 156 115 115 132 144 122 115 85 70 160 159 152 141 133 139 186 185 169 164 158 152 162 163 160 163 146 143 139 156 150 147 147 142 157 154 161 161 157 155 159 155 136 132 141 142 147 149 161 168 164 160 161 162 185 183 185 182 189 189 189 199 215 202 192 195 206 221 222 202 202
119 200 182 142 161 209 218 210 148 142 236 227 232 215 205 226 131 122 119 142 149 133 137 109 72 62 110 144 151 152 160 176 179 160 164 168 172 165 156 153 152 146 136 135 121 123 116 133 146 158 154 150 149 155 160 164 159 141 128 133 140 143 145 146 146 156 176 171 184 182 175 192 194 189 187 190 200 211 243 247 225 220 215 228 210 221
195 192 163 185 198 221 221 170 183 189 272 250 187 138 157 161 140 158 172 165 171 160 156 122 109 76 101 174 199 163 163 164 172 160 156 165 174 172 166 156 150 155 157 146 132 131 137 133 122 126 140 167 155 167 165 164 166 154 148 136 147 143 140 140 152 171 178 173 203 191 185 183 192 196 197 201 198 205 219 253 265 244 239 236 220 224